This is the latest recevied weather packets stored in our database for station/object WX7FGZ-5. If no packets are shown the sender has not sent any weather packets the latest 10 day(s).
| Time | Temp. | Humidity | Pressure | Rain* | Wind** | Luminosity | Snow |
|---|---|---|---|---|---|---|---|
| 1777635568 | -2.22° C | 57% | 1019.7 hPa | 0 mm | - | 0 W/m² | - |
| 1777635283 | -2.22° C | 57% | 1019.7 hPa | 0 mm | - | 0 W/m² | - |
| 1777634983 | -1.67° C | 55% | 1019.7 hPa | 0 mm | - | 0 W/m² | - |
| 1777634699 | -0.56° C | 53% | 1019.7 hPa | 0 mm | - | 0 W/m² | - |
| 1777634383 | -0.56° C | 53% | 1019.7 hPa | 0 mm | - | 0 W/m² | - |
| 1777634166 | 0° C | 50% | 1019.7 hPa | 0 mm | - | 0 W/m² | - |
| 1777634082 | -0.56° C | 51% | 1019.7 hPa | 0 mm | - | 0 W/m² | - |
| 1777633782 | 0° C | 50% | 1019.7 hPa | 0 mm | - | 0 W/m² | - |
| 1777633483 | 0° C | 50% | 1019.7 hPa | 0 mm | - | 0 W/m² | - |
| 1777633183 | 0° C | 49% | 1019.6 hPa | 0 mm | - | 0 W/m² | - |
| 1777632283 | 0.56° C | 50% | 1019.5 hPa | 0 mm | - | 0 W/m² | - |
| 1777631982 | 1.11° C | 48% | 1019.4 hPa | 0 mm | - | 0 W/m² | - |
| 1777630923 | 1.11° C | 48% | 1019.2 hPa | 0 mm | - | 0 W/m² | - |
| 1777630593 | 1.11° C | 48% | 1019.1 hPa | 0 mm | - | 0 W/m² | - |
| 1777630483 | 1.11° C | 48% | 1019.2 hPa | 0 mm | - | 0 W/m² | - |
| 1777630310 | 1.11° C | 48% | 1019.1 hPa | 0 mm | - | 0 W/m² | - |
| 1777630182 | 1.11° C | 48% | 1019.1 hPa | 0 mm | - | 0 W/m² | - |
| 1777629955 | 1.11° C | 47% | 1019.1 hPa | 0 mm | - | 0 W/m² | - |
| 1777629928 | 1.11° C | 48% | 1019.1 hPa | 0 mm | - | 0 W/m² | - |
| 1777629583 | 1.11° C | 47% | 1019.1 hPa | 0 mm | - | 0 W/m² | - |
| 1777629366 | 1.67° C | 47% | 1019.2 hPa | 0 mm | - | 0 W/m² | - |
| 1777629030 | 1.67° C | 46% | 1019.3 hPa | 0 mm | - | 0 W/m² | - |
| 1777628982 | 1.67° C | 47% | 1019.2 hPa | 0 mm | - | 0 W/m² | - |
| 1777628683 | 1.67° C | 46% | 1019.3 hPa | 0 mm | - | 0 W/m² | - |
| 1777628088 | 1.67° C | 47% | 1019.3 hPa | 0 mm | - | 0 W/m² | - |
* Rain latest hour (hover to see other rain measurements)
** Current wind speed in m/s (hover to see current wind gust speed)